| time (UTC) | temp C | wind direction | speed KPH | gust KPH | rain 1hr cm | rain 24hr cm | rain mn cm | humidity % | barometer mb |
| 20260506211845 | 14 | 211 | 3.2 | 3.2 | 0.00 | 0.00 | 0.25 | 98 | 1007.0 |
| 20260506211345 | 14 | 126 | 3.2 | 4.8 | 0.00 | 0.00 | 0.25 | 98 | 1007.0 |
| 20260506210846 | 14 | 90 | 0.0 | 3.2 | 0.00 | 0.00 | 0.25 | 98 | 1007.0 |
| 20260506210345 | 14 | 231 | 1.6 | 3.2 | 0.00 | 0.00 | 0.25 | 98 | 1007.0 |
| 20260506205357 | 14 | 103 | 3.2 | 4.8 | 0.00 | 0.00 | 0.25 | 98 | 1007.0 |
| 20260506204847 | 14 | 3 | 1.6 | 3.2 | 0.00 | 0.00 | 0.25 | 98 | 1008.0 |
| 20260506204347 | 14 | 209 | 0.0 | 1.6 | 0.00 | 0.00 | 0.25 | 98 | 1007.0 |
| 20260506203845 | 14 | 137 | 3.2 | 3.2 | 0.00 | 0.00 | 0.25 | 98 | 1007.0 |
| 20260506203346 | 14 | 71 | 4.8 | 6.4 | 0.00 | 0.00 | 0.25 | 97 | 1007.0 |
| 20260506202845 | 14 | 88 | 1.6 | 3.2 | 0.00 | 0.00 | 0.25 | 97 | 1007.0 |
| 20260506202345 | 14 | 283 | 1.6 | 6.4 | 0.00 | 0.00 | 0.25 | 97 | 1008.0 |
| 20260506201847 | 14 | 85 | 6.4 | 8.0 | 0.03 | 0.00 | 0.25 | 97 | 1008.0 |
| 20260506201348 | 14 | 42 | 1.6 | 3.2 | 0.00 | 0.00 | 0.25 | 97 | 1008.0 |
| 20260506200846 | 14 | 228 | 3.2 | 8.0 | 0.03 | 0.00 | 0.23 | 97 | 1008.0 |
| 20260506200346 | 14 | 276 | 0.0 | 1.6 | 0.03 | 0.00 | 0.23 | 97 | 1008.0 |
| 20260506195845 | 14 | 82 | 3.2 | 4.8 | 0.08 | 0.00 | 0.23 | 97 | 1008.0 |
| 20260506195343 | 14 | 119 | 4.8 | 9.7 | 0.08 | 0.00 | 0.23 | 97 | 1008.0 |
| 20260506194845 | 14 | 149 | 3.2 | 6.4 | 0.00 | 0.00 | 0.23 | 96 | 1008.0 |
| 20260506194346 | 14 | 97 | 3.2 | 8.0 | 0.00 | 0.00 | 0.23 | 96 | 1008.0 |
| 20260506193845 | 14 | 47 | 6.4 | 8.0 | 0.00 | 0.00 | 0.23 | 96 | 1008.0 |
| 20260506193346 | 14 | 226 | 3.2 | 6.4 | 0.05 | 0.00 | 0.23 | 96 | 1008.0 |
| 20260506192843 | 14 | 136 | 3.2 | 6.4 | 0.03 | 0.00 | 0.23 | 96 | 1008.0 |
| 20260506192348 | 14 | 157 | 4.8 | 9.7 | 0.03 | 0.00 | 0.23 | 95 | 1008.0 |
| 20260506191357 | 14 | 206 | 3.2 | 6.4 | 0.18 | 0.00 | 0.20 | 94 | 1008.0 |
| 20260506190845 | 14 | 202 | 3.2 | 4.8 | 0.15 | 0.00 | 0.18 | 94 | 1008.0 |
| 20260506190347 | 14 | 166 | 1.6 | 3.2 | 0.10 | 0.00 | 0.15 | 94 | 1008.0 |
| 20260506185844 | 15 | 85 | 4.8 | 11.3 | 0.25 | 0.00 | 0.15 | 93 | 1008.0 |
| 20260506185347 | 15 | 115 | 1.6 | 3.2 | 0.15 | 0.00 | 0.13 | 92 | 1008.0 |
| 20260506184845 | 15 | 127 | 3.2 | 6.4 | 0.13 | 0.00 | 0.13 | 92 | 1008.0 |
| 20260506184347 | 15 | 119 | 1.6 | 4.8 | 0.10 | 0.00 | 0.10 | 91 | 1008.0 |
| 20260506183846 | 15 | 126 | 4.8 | 8.0 | 0.10 | 0.00 | 0.10 | 90 | 1008.0 |
| 20260506183346 | 15 | 176 | 1.6 | 4.8 | 0.05 | 0.00 | 0.08 | 89 | 1008.0 |
| 20260506182847 | 15 | 98 | 3.2 | 8.0 | 0.10 | 0.00 | 0.08 | 88 | 1009.0 |
| 20260506182347 | 16 | 93 | 3.2 | 9.7 | 0.13 | 0.00 | 0.08 | 87 | 1009.0 |
| 20260506181845 | 16 | 173 | 1.6 | 3.2 | 0.20 | 0.00 | 0.05 | 85 | 1009.0 |
| 20260506181345 | 16 | 298 | 3.2 | 4.8 | 0.08 | 0.00 | 0.05 | 85 | 1009.0 |
| 20260506180846 | 16 | 172 | 4.8 | 8.0 | 0.15 | 0.00 | 0.03 | 81 | 1009.0 |
| 20260506180343 | 17 | 155 | 3.2 | 4.8 | 0.15 | 0.00 | 0.03 | 79 | 1009.0 |
| 20260506175846 | 17 | 144 | 4.8 | 9.7 | 0.03 | 0.00 | 0.00 | 76 | 1009.0 |
| 20260506175345 | 17 | 161 | 4.8 | 8.0 | 0.13 | 0.00 | 0.00 | 75 | 1009.0 |
| 20260506174845 | 17 | 121 | 3.2 | 6.4 | 0.00 | 0.00 | 0.00 | 73 | 1009.0 |
| 20260506174346 | 18 | 212 | 6.4 | 12.9 | 0.00 | 0.00 | 0.00 | 72 | 1009.0 |
| 20260506173846 | 18 | 108 | 3.2 | 6.4 | 0.00 | 0.00 | 0.00 | 73 | 1009.0 |
| 20260506173345 | 18 | 121 | 8.0 | 12.9 | 0.00 | 0.00 | 0.00 | 71 | 1009.0 |
| 20260506172846 | 18 | 91 | 8.0 | 14.5 | 0.00 | 0.00 | 0.00 | 70 | 1009.0 |
| 20260506172345 | 18 | 163 | 4.8 | 8.0 | 0.00 | 0.00 | 0.00 | 69 | 1009.0 |
| 20260506171846 | 18 | 179 | 3.2 | 8.0 | 0.00 | 0.00 | 0.00 | 68 | 1009.0 |
| 20260506171345 | 19 | 202 | 4.8 | 9.7 | 0.00 | 0.00 | 0.00 | 67 | 1009.0 |
| 20260506170846 | 19 | 111 | 6.4 | 14.5 | 0.00 | 0.00 | 0.00 | 66 | 1009.0 |
| 20260506170346 | 20 | 69 | 4.8 | 9.7 | 0.00 | 0.00 | 0.00 | 66 | 1009.0 |
| 20260506165849 | 20 | 129 | 6.4 | 9.7 | 0.00 | 0.00 | 0.00 | 63 | 1009.0 |
| 20260506165345 | 20 | 229 | 6.4 | 9.7 | 0.00 | 0.00 | 0.00 | 65 | 1009.0 |
| 20260506164845 | 20 | 190 | 6.4 | 11.3 | 0.00 | 0.00 | 0.00 | 65 | 1009.0 |
| 20260506164345 | 20 | 133 | 3.2 | 4.8 | 0.00 | 0.00 | 0.00 | 65 | 1009.0 |
| 20260506163849 | 20 | 150 | 4.8 | 6.4 | 0.00 | 0.00 | 0.00 | 64 | 1009.0 |
| 20260506163345 | 20 | 80 | 8.0 | 14.5 | 0.00 | 0.00 | 0.00 | 63 | 1009.0 |
| 20260506162846 | 20 | 73 | 8.0 | 14.5 | 0.00 | 0.00 | 0.00 | 62 | 1009.0 |
| 20260506162345 | 20 | 56 | 4.8 | 12.9 | 0.00 | 0.00 | 0.00 | 62 | 1009.0 |
| 20260506161845 | 20 | 199 | 9.7 | 16.1 | 0.00 | 0.00 | 0.00 | 63 | 1009.0 |
| 20260506161346 | 20 | 116 | 9.7 | 17.7 | 0.00 | 0.00 | 0.00 | 62 | 1010.0 |
| 20260506160844 | 20 | 93 | 6.4 | 11.3 | 0.00 | 0.00 | 0.00 | 63 | 1009.0 |
| 20260506160346 | 20 | 212 | 6.4 | 9.7 | 0.00 | 0.00 | 0.00 | 61 | 1010.0 |
| 20260506155845 | 20 | 188 | 4.8 | 8.0 | 0.00 | 0.00 | 0.00 | 61 | 1009.0 |
| 20260506155344 | 20 | 177 | 4.8 | 17.7 | 0.00 | 0.00 | 0.00 | 62 | 1010.0 |
| 20260506154845 | 20 | 189 | 8.0 | 12.9 | 0.00 | 0.00 | 0.00 | 62 | 1010.0 |
| 20260506154346 | 20 | 88 | 3.2 | 6.4 | 0.00 | 0.00 | 0.00 | 63 | 1010.0 |
| 20260506153843 | 20 | 86 | 6.4 | 11.3 | 0.00 | 0.00 | 0.00 | 62 | 1010.0 |
| 20260506153345 | 20 | 73 | 3.2 | 6.4 | 0.00 | 0.00 | 0.00 | 60 | 1010.0 |